Dewpoint
-4 2 3 -0 1 4 5 4 4 2 -0 2 3 4 2 0 0 -1 2 1 0 1 0 2 3 8 8 9 12 11 10 10 9 9 8 8 7 5 4 3 0 -1 -3 -7
-1 -2 -3 -1 0 2 1 5 6 3 0 1 1 3 2 1 1 -1 -1 1 1 1 0 0 1 5 6 8 11 12 11 10 9 9 8 8 6 5 4 1 -0 -1 -3 -8
-1 -3 -5 -4 -3 3 2 4 4 6 4 2 1 2 1 1 0 0 -1 -0 1 1 1 0 1 1 6 7 10 12 11 10 10 8 8 6 5 5 3 1 -0 -1 -4 -9
-4 -5 -6 -8 -6 -4 1 -0 2 3 6 6 5 7 3 1 1 -0 -1 -1 -1 -0 1 1 1 2 3 7 7 10 11 10 10 9 8 6 5 4 3 0 -2 -3 -5 -9
-7 -7 -6 -4 -3 -6 -4 -4 3 4 5 5 6 7 5 0 2 1 -1 -2 -1 -1 -1 1 2 1 3 7 7 10 10 10 9 9 8 6 6 5 3 -0 -3 -4 -6 -9
-10 -12 -9 -6 -5 -4 -1 -1 -1 2 1 5 4 6 3 3 2 1 -1 -2 -2 -3 -1 -0 2 2 3 5 6 10 11 10 10 8 8 7 6 4 2 -0 -3 -5 -6 -9
-8 -11 -3 -5 -5 -5 2 1 2 2 3 2 3 5 5 -1 -1 -1 -1 -2 -2 -3 -3 -1 2 3 5 5 9 10 11 10 10 9 7 6 6 5 3 0 -3 -6 -8 -9
-7 -9 -9 -9 -2 -1 -2 -1 1 2 0 -2 -0 5 2 -0 -2 -4 -5 -5 -4 -3 -2 -1 -0 3 4 6 10 10 10 10 10 9 7 7 6 5 2 1 -3 -6 -9 -10
-6 -9 -12 -11 -12 -5 -1 1 -1 0 1 -1 -1 1 0 -1 -1 -4 -5 -7 -5 -3 -2 -2 -1 1 4 7 8 9 10 9 10 8 8 7 6 5 3 2 -1 -5 -8 -10
-8 -5 -14 -11 -9 -5 -0 0 3 3 4 4 5 2 1 1 -1 -2 -6 -1 -2 -4 -2 -1 -1 1 2 4 6 10 10 7 9 9 8 7 6 6 4 3 1 -2 -7 -9
-10 -7 -9 -12 -5 -3 -3 -3 -1 3 3 2 3 2 -2 -1 -4 -0 1 0 -0 -1 -4 -3 -1 2 2 4 5 8 10 8 9 9 9 7 7 6 5 4 1 1 -2 -7
-9 -8 -7 -10 -4 -4 -6 -3 -3 -1 1 5 5 6 1 1 0 0 0 -1 -2 -2 -2 -1 -2 2 4 5 7 8 9 9 9 8 8 8 7 6 6 3 3 2 0 -7
-5 -8 -7 -10 -7 -8 -6 -6 -4 -3 -0 3 5 6 1 1 -0 -1 -1 -1 -2 -3 -2 -2 -1 4 4 4 8 8 9 8 8 8 8 7 7 7 6 5 3 3 1 -5
-11 -7 -7 -6 -7 -7 -5 -6 -4 -1 1 2 4 5 4 3 2 1 1 -1 -3 -3 -1 -1 -0 1 6 5 7 8 8 8 7 8 7 7 7 7 6 4 4 3 1 -1
-10 -8 -9 -10 -10 -10 -4 -3 -2 -1 -0 3 2 0 -0 -1 -3 -3 -2 -1 -2 -3 0 -0 0 2 3 5 6 8 8 7 7 7 7 7 7 7 5 5 4 4 4 4
-10 -8 -8 -8 -12 -10 -3 -2 -3 -2 -0 0 -2 -1 -2 -4 -5 -5 -2 -1 -0 -2 1 0 2 3 3 4 7 8 8 8 7 7 7 6 7 6 5 5 4 4 4 2
-9 -7 -7 -8 -11 -5 -3 -3 -3 -4 -5 -3 -3 -3 -4 -4 -5 -5 -2 -0 1 2 2 2 3 4 4 5 5 8 7 7 7 7 7 6 6 5 5 5 4 4 4 2
-10 -8 -8 -6 -7 -1 -2 -5 -4 -3 -5 -5 -5 -5 -6 -5 -5 -4 -2 1 3 4 4 4 3 4 5 4 5 6 7 7 7 7 7 6 6 5 5 5 4 4 3 1
-8 -7 -5 -6 -5 -5 -7 -6 -7 -4 -4 -7 -7 -7 -7 -6 -5 -4 -3 -1 1 2 4 4 4 5 6 7 8 8 8 7 7 7 6 6 5 4 4 3 3 3 1 -1
-10 -9 -6 -5 -4 -3 -6 -9 -9 -6 -2 -8 -8 -6 -6 -5 -4 -5 -3 -0 0 1 2 3 3 5 6 7 7 8 8 7 7 7 6 6 5 5 4 4 3 0 -1 -5
-7 -6 -6 -5 -4 -4 -8 -10 -11 -8 -7 -9 -7 -6 -6 -5 -4 -3 -2 -1 -1 0 1 1 2 4 5 6 7 6 6 6 6 6 6 5 4 3 2 2 3 3 -2 -4
-5 -6 -6 -6 -6 -6 -10 -9 -8 -7 -9 -8 -7 -6 -5 -4 -4 -4 -3 -3 -2 -1 -0 1 2 3 3 5 6 6 6 6 6 6 5 5 3 3 2 1 -1 -0 -1 -2
-7 -8 -7 -9 -8 -11 -13 -9 -9 -10 -8 -8 -6 -6 -6 -5 -5 -5 -5 -4 -4 -3 -2 -1 -0 1 2 2 3 5 4 4 5 5 4 3 1 0 -1 -0 -1 -2 -3 -2
-12 -11 -11 -10 -11 -12 -13 -12 -10 -9 -7 -7 -6 -6 -6 -6 -6 -6 -6 -6 -5 -4 -3 -3 -2 -1 -0 -0 1 2 2 1 2 2 0 -1 -1 -2 -2 -2 -2 -3 -4 -5
-12 -11 -11 -11 -12 -12 -12 -12 -9 -8 -7 -7 -7 -7 -6 -6 -6 -7 -7 -6 -6 -6 -5 -4 -4 -4 -3 -2 -1 -1 -1 -0 -0 -1 -2 -3 -3 -3 -4 -5 -5 -4 -4 -3
-13 -11 -11 -10 -13 -10 -9 -9 -7 -7 -6 -7 -7 -7 -7 -7 -7 -7 -7 -7 -7 -7 -6 -6 -6 -6 -5 -5 -5 -4 -4 -2 -2 -4 -5 -5 -5 -6 -5 -5 -5 -4 -4 -4
Wind_Speed
13 10 18 29 27 23 22 24 22 27 11 13 24 29 24 20 15 17 32 34 37 39 41 35 36 37 35 42 48 51 49 46 43 45 44 40 36 35 33 33 33 31 28 29
5 14 18 21 22 23 27 27 21 16 9 19 22 27 27 19 25 30 21 30 35 34 39 42 42 40 40 42 48 54 52 46 47 47 46 43 40 38 34 35 35 32 31 31
11 16 23 18 20 20 27 27 25 13 8 17 18 28 26 20 23 33 29 28 32 37 41 45 45 46 43 44 48 53 56 54 48 49 46 43 41 36 35 35 36 33 32 32
13 12 14 21 19 18 21 23 23 22 9 14 14 10 25 20 19 18 20 26 33 28 35 45 46 46 47 47 43 47 54 55 54 53 50 47 44 42 41 40 38 35 34 33
13 21 20 20 21 21 20 24 18 14 14 13 10 7 4 18 17 21 22 20 29 37 32 37 46 50 47 47 45 46 50 55 51 53 54 50 46 43 42 41 39 38 37 34
17 26 17 15 20 22 22 20 19 15 16 14 16 13 13 9 23 21 13 25 30 32 35 33 40 47 47 47 46 47 51 55 57 53 53 50 52 50 47 45 43 42 39 37
15 17 2 8 21 13 11 11 8 12 11 12 7 7 10 8 14 17 21 32 35 38 39 41 38 45 48 47 47 49 50 53 54 53 55 56 53 52 46 44 45 46 43 39
8 20 16 19 4 10 21 8 6 15 10 10 7 7 8 19 14 6 21 24 37 37 41 41 41 42 48 49 48 50 49 51 56 60 56 57 50 50 46 47 45 46 44 43
6 15 24 14 19 11 4 8 15 3 1 5 9 8 6 8 21 14 6 12 12 34 38 44 47 43 43 50 50 52 49 51 55 59 59 58 53 50 48 45 45 46 42 41
6 14 9 18 15 8 8 8 6 6 5 8 5 10 6 14 15 16 3 6 10 12 31 36 44 43 43 44 45 51 51 51 53 59 60 59 57 52 46 46 45 43 39 41
2 1 17 14 6 12 8 7 6 0 3 2 4 3 6 11 11 13 9 16 23 18 6 22 33 39 43 45 45 50 52 50 56 53 61 59 55 54 50 50 48 45 42 44
4 3 12 21 5 8 5 6 7 4 3 2 1 3 8 16 14 17 9 19 21 20 16 14 18 36 39 45 46 51 52 51 54 52 56 60 57 56 50 50 50 45 45 46
5 3 11 14 4 3 5 13 12 14 5 3 1 6 6 16 14 12 11 21 18 19 14 14 11 18 39 44 46 50 51 51 51 52 56 59 58 58 55 50 49 47 46 47
15 4 3 8 13 14 21 25 19 9 2 4 2 10 13 17 10 10 15 18 20 24 10 13 8 8 31 42 45 49 50 50 51 51 56 58 58 56 54 50 50 49 46 44
3 7 14 16 16 18 19 21 17 6 4 4 8 13 16 17 16 13 21 21 20 21 6 10 9 6 13 33 41 45 49 51 50 49 56 58 56 54 55 54 51 48 46 44
2 5 14 16 13 11 16 20 26 18 15 12 11 10 18 17 23 26 24 24 22 16 10 9 9 8 4 31 41 46 48 49 47 47 56 58 55 56 58 58 50 46 46 46
2 3 7 6 15 17 4 19 16 16 25 16 16 11 17 19 18 17 22 23 22 19 10 7 10 11 8 32 39 43 44 42 44 47 54 57 58 57 58 55 54 49 47 47
3 4 3 5 12 5 5 17 11 10 16 19 15 18 19 20 25 4 26 31 26 18 8 10 12 10 6 28 36 42 43 42 45 48 52 53 55 55 57 56 53 50 49 49
2 2 4 3 4 5 12 22 17 9 7 21 19 20 23 33 15 3 34 31 23 17 14 15 13 9 4 20 32 38 41 40 42 48 51 51 54 56 57 56 55 52 51 51
9 2 0 4 4 7 12 22 28 8 3 25 23 19 21 26 10 5 34 28 20 18 17 16 11 6 5 17 28 35 43 41 43 44 47 50 53 55 58 58 54 49 51 51
6 4 1 5 2 4 16 20 13 8 8 31 28 24 23 11 11 28 20 17 17 16 16 13 8 3 3 11 18 24 35 39 41 43 46 48 50 51 53 55 55 55 52 51
5 4 4 5 4 4 27 8 7 7 18 24 24 25 26 24 21 17 14 15 15 13 11 7 4 2 2 7 16 22 28 33 37 40 43 46 47 48 48 50 52 53 53 53
4 2 2 2 3 5 14 8 12 21 23 25 25 27 24 24 17 15 13 13 12 10 7 5 3 1 2 4 8 20 24 31 36 40 43 45 44 45 46 50 53 52 53 57
10 14 2 6 3 18 22 22 31 29 26 25 25 24 21 19 15 12 11 10 9 8 7 5 2 2 4 6 8 11 21 26 32 37 39 40 42 45 47 48 51 53 56 57
3 7 7 5 5 26 3 39 34 33 26 24 24 19 16 14 11 10 8 9 9 8 7 6 6 8 10 11 14 16 19 23 28 35 40 43 45 47 48 47 48 51 52 51
8 4 2 3 20 16 24 36 26 24 22 20 19 16 13 10 10 10 11 11 12 13 12 12 13 14 16 16 19 21 24 26 33 40 42 44 46 47 47 46 45 41 41 39
Wind_Direction
307 251 224 237 250 261 264 251 246 236 216 210 218 233 226 223 222 213 220 218 218 220 219 212 209 208 210 213 204 193 191 192 192 185 184 187 193 193 196 196 195 196 195 191
290 249 269 269 261 259 263 270 265 239 196 216 229 241 237 212 222 239 215 220 214 212 213 216 214 211 212 213 209 204 200 195 191 193 195 198 198 195 198 194 195 198 195 189
289 283 286 288 280 270 253 252 258 272 239 232 227 240 248 212 209 224 229 223 216 212 206 208 208 210 209 211 209 207 201 199 201 194 193 191 189 188 190 191 193 195 193 188
285 261 281 291 283 282 273 257 265 253 271 230 207 246 234 210 207 204 225 219 223 212 210 207 205 204 211 209 208 209 206 203 194 196 193 189 187 191 195 194 193 191 191 188
286 289 287 282 264 269 275 253 255 258 258 253 225 246 249 198 215 216 219 216 224 235 225 207 200 207 208 208 207 206 209 207 205 199 196 191 196 201 195 194 190 190 189 190
287 281 265 260 283 284 264 261 239 252 248 246 230 239 218 177 206 212 214 230 224 221 218 212 203 205 204 209 208 202 206 208 200 197 197 194 193 197 194 192 189 188 189 189
328 325 340 12 339 304 295 188 217 229 218 240 191 235 261 188 187 199 212 225 219 218 222 214 203 202 204 207 202 200 199 205 205 194 193 196 199 202 196 195 193 190 189 191
337 330 335 306 325 294 285 266 203 212 213 224 174 229 232 225 236 206 200 214 224 214 207 207 211 200 205 206 198 198 194 201 207 201 194 198 204 204 203 198 200 198 193 192
308 303 305 307 318 303 289 209 220 34 1 192 183 209 309 188 220 226 226 193 169 203 201 205 211 209 203 205 201 197 193 203 207 199 198 200 201 208 199 202 204 202 197 196
266 297 305 318 315 339 283 306 153 187 209 192 177 174 216 182 187 224 154 89 86 181 200 206 209 206 207 206 207 200 202 205 207 207 202 203 205 207 207 203 202 204 201 201
243 275 312 333 341 335 340 27 332 63 200 171 138 228 237 184 120 114 118 86 71 69 156 199 211 204 206 205 205 203 202 204 200 209 207 204 207 206 205 205 201 204 203 204
284 240 307 306 292 41 11 12 16 334 267 248 257 74 342 107 108 106 88 87 71 57 49 67 207 201 198 198 201 201 202 199 202 206 208 206 209 209 208 204 204 203 203 202
329 321 328 340 343 287 353 335 324 302 245 219 108 132 10 66 58 60 82 63 47 32 33 28 56 195 195 200 196 197 198 202 204 205 206 207 210 214 208 207 205 204 201 201
343 253 194 285 280 288 305 302 308 283 292 338 29 88 36 28 23 41 34 44 32 19 34 10 15 60 201 201 197 196 196 200 202 204 202 206 211 212 209 201 202 200 201 198
105 283 299 294 294 294 294 286 286 284 286 26 68 66 16 14 18 14 12 10 10 15 12 6 354 350 188 207 202 200 201 202 203 204 202 205 213 213 205 202 202 199 201 204
267 275 313 307 301 330 314 10 36 36 20 51 50 55 3 350 8 14 10 6 4 351 335 3 355 329 333 206 204 194 198 198 204 205 204 205 211 210 205 203 200 203 203 203
233 318 321 287 323 309 47 12 34 46 35 23 34 345 347 354 357 355 358 1 347 343 345 355 350 342 300 204 206 193 201 203 205 205 202 204 206 203 204 202 201 200 206 203
346 328 283 293 317 54 55 18 358 52 46 33 18 2 350 335 319 359 17 0 3 32 30 5 358 358 319 197 203 202 199 199 200 201 201 200 202 204 205 201 199 200 203 202
44 3 310 323 315 270 15 349 338 346 48 22 3 353 346 339 339 57 6 358 359 14 22 9 0 19 103 179 183 185 192 197 197 196 199 199 199 199 199 194 193 196 196 197
339 326 154 335 321 28 356 333 343 143 108 9 357 345 341 345 11 326 340 346 349 0 358 345 348 28 126 168 184 189 188 191 193 198 200 200 204 205 201 199 192 189 193 189
332 355 33 299 302 88 354 342 340 45 316 332 339 334 329 331 304 305 334 332 340 345 342 334 337 349 126 169 191 183 174 180 188 193 196 197 200 200 199 194 191 192 187 179
10 337 350 330 5 354 0 5 45 306 312 323 330 327 317 321 327 337 341 341 341 339 335 335 334 282 224 205 201 200 190 186 191 194 195 197 197 199 199 196 186 185 184 179
58 1 289 38 294 46 358 53 0 345 333 328 327 332 332 330 336 339 343 343 346 350 358 7 356 309 219 196 203 200 190 185 190 191 189 188 189 188 187 186 176 170 171 172
345 14 43 321 65 342 336 353 346 340 328 326 335 334 332 333 338 340 347 357 10 21 30 38 50 114 135 148 164 199 185 183 183 180 176 176 176 170 171 173 173 174 169 163
324 328 314 278 341 340 202 333 327 328 334 339 339 339 339 342 349 354 15 32 43 50 59 76 94 110 119 137 148 158 171 184 174 166 160 159 162 164 162 162 164 169 169 168
343 332 339 281 307 291 289 315 335 329 337 344 347 352 6 17 26 49 60 69 77 79 84 91 100 109 116 128 134 142 152 165 162 153 154 157 157 157 159 159 155 159 156 155
Height
1432 1430 1417 1408 1408 1410 1404 1397 1390 1389 1397 1401 1401 1394 1398 1404 1409 1410 1408 1410 1415 1419 1427 1433 1438 1443 1449 1454 1460 1467 1473 1476 1482 1486 1492 1500 1506 1512 1518 1523 1527 1530 1534 1538
1431 1423 1413 1413 1406 1404 1400 1400 1393 1383 1388 1396 1396 1390 1385 1397 1399 1398 1403 1403 1406 1412 1419 1425 1429 1435 1442 1446 1453 1460 1466 1473 1475 1482 1486 1493 1499 1507 1513 1518 1523 1527 1531 1536
1431 1421 1419 1413 1407 1403 1394 1395 1394 1396 1387 1384 1385 1386 1379 1383 1389 1393 1394 1395 1399 1403 1408 1415 1417 1425 1434 1439 1444 1453 1460 1468 1469 1478 1483 1490 1499 1507 1512 1516 1520 1524 1529 1533
1423 1414 1410 1408 1405 1401 1402 1388 1389 1389 1393 1377 1383 1376 1372 1374 1377 1382 1382 1385 1390 1394 1401 1407 1409 1417 1424 1433 1439 1447 1454 1459 1464 1471 1477 1483 1492 1497 1504 1511 1515 1520 1525 1531
1426 1415 1408 1404 1401 1394 1393 1384 1387 1388 1383 1389 1380 1381 1365 1360 1371 1372 1371 1377 1381 1387 1392 1398 1402 1408 1418 1427 1434 1441 1449 1455 1460 1464 1472 1477 1484 1494 1500 1509 1512 1516 1521 1527
1421 1407 1402 1397 1393 1390 1381 1378 1377 1381 1382 1370 1370 1373 1355 1358 1355 1361 1368 1371 1376 1381 1386 1391 1397 1403 1411 1420 1427 1435 1442 1448 1454 1459 1465 1473 1478 1490 1496 1503 1506 1511 1518 1523
1415 1405 1396 1393 1393 1376 1374 1367 1376 1380 1372 1366 1362 1372 1371 1348 1350 1354 1360 1361 1367 1371 1378 1384 1389 1396 1405 1410 1419 1428 1434 1442 1449 1453 1459 1467 1475 1484 1490 1498 1503 1504 1509 1519
1439 1414 1402 1392 1397 1391 1377 1374 1352 1364 1360 1363 1356 1367 1348 1341 1346 1350 1353 1355 1357 1362 1369 1375 1381 1388 1395 1404 1412 1422 1427 1436 1443 1449 1454 1465 1469 1479 1484 1488 1498 1505 1506 1512
1446 1419 1402 1393 1390 1388 1361 1353 1337 1355 1359 1365 1347 1349 1338 1340 1342 1345 1349 1349 1350 1353 1360 1366 1375 1381 1388 1396 1404 1413 1422 1430 1438 1443 1450 1459 1466 1473 1480 1486 1493 1503 1505 1511
1437 1421 1397 1390 1383 1373 1365 1356 1342 1348 1346 1338 1342 1341 1339 1334 1334 1337 1348 1352 1351 1352 1356 1362 1368 1374 1382 1390 1400 1408 1415 1421 1431 1437 1445 1453 1460 1468 1475 1481 1489 1497 1502 1509
1437 1437 1403 1393 1391 1389 1369 1373 1363 1341 1345 1353 1352 1344 1325 1321 1328 1342 1347 1348 1349 1353 1356 1359 1364 1369 1376 1384 1392 1399 1409 1416 1425 1431 1440 1448 1456 1463 1470 1477 1480 1488 1495 1505
1434 1436 1416 1399 1389 1386 1385 1384 1382 1368 1356 1334 1331 1339 1334 1327 1331 1335 1344 1348 1351 1353 1356 1358 1361 1363 1371 1379 1386 1391 1401 1410 1418 1426 1434 1441 1450 1457 1463 1472 1478 1484 1490 1501
1433 1437 1422 1398 1390 1384 1389 1384 1388 1382 1364 1333 1334 1336 1342 1334 1338 1340 1345 1350 1353 1355 1356 1357 1360 1362 1366 1373 1380 1387 1396 1403 1412 1421 1429 1434 1443 1450 1457 1465 1472 1481 1488 1497
1433 1433 1435 1431 1424 1411 1401 1387 1386 1374 1355 1343 1344 1339 1343 1350 1349 1350 1351 1353 1355 1357 1358 1358 1361 1365 1367 1369 1374 1382 1391 1398 1407 1415 1423 1428 1437 1445 1451 1459 1466 1474 1484 1490
1437 1434 1421 1412 1410 1406 1398 1384 1372 1370 1361 1346 1355 1359 1370 1368 1365 1363 1360 1357 1356 1357 1360 1361 1361 1363 1366 1368 1373 1377 1385 1393 1402 1409 1417 1423 1433 1441 1448 1454 1462 1470 1479 1486
1432 1431 1420 1411 1399 1397 1398 1379 1370 1372 1365 1364 1366 1369 1378 1376 1367 1364 1366 1364 1359 1359 1361 1360 1359 1360 1362 1363 1368 1375 1381 1388 1395 1403 1412 1420 1428 1434 1440 1446 1456 1467 1474 1480
1436 1432 1428 1415 1401 1400 1393 1397 1394 1391 1389 1384 1386 1395 1387 1376 1377 1378 1375 1371 1368 1362 1361 1360 1359 1359 1359 1359 1363 1371 1377 1384 1391 1400 1408 1414 1422 1427 1434 1442 1451 1460 1469 1477
1437 1435 1426 1421 1404 1389 1406 1410 1405 1400 1405 1404 1404 1401 1395 1389 1385 1384 1378 1372 1368 1364 1364 1362 1360 1358 1353 1355 1359 1366 1373 1379 1387 1395 1403 1409 1416 1422 1428 1434 1445 1454 1463 1472
1434 1433 1430 1429 1417 1410 1407 1411 1406 1408 1405 1410 1409 1405 1400 1388 1374 1375 1377 1377 1375 1371 1368 1364 1363 1361 1357 1359 1361 1366 1371 1375 1383 1392 1398 1405 1411 1416 1422 1427 1438 1449 1458 1467
1431 1430 1434 1428 1422 1408 1435 1415 1404 1399 1400 1412 1414 1410 1404 1395 1390 1388 1384 1380 1376 1372 1368 1368 1366 1365 1364 1363 1365 1366 1368 1376 1382 1388 1395 1401 1407 1413 1418 1422 1431 1441 1454 1462
1443 1438 1443 1430 1426 1425 1436 1420 1406 1414 1434 1422 1421 1415 1409 1406 1403 1394 1388 1383 1380 1375 1373 1371 1369 1368 1368 1367 1368 1368 1365 1373 1380 1387 1392 1398 1404 1410 1416 1422 1428 1436 1451 1458
1451 1453 1443 1437 1437 1438 1436 1425 1429 1444 1436 1430 1423 1416 1410 1405 1399 1394 1390 1385 1380 1377 1375 1373 1372 1370 1370 1370 1371 1372 1373 1376 1380 1386 1391 1397 1402 1408 1415 1421 1428 1435 1444 1453
1461 1465 1459 1459 1446 1448 1447 1445 1444 1441 1434 1427 1423 1417 1410 1404 1397 1393 1389 1385 1382 1379 1377 1375 1374 1373 1372 1372 1372 1373 1374 1375 1379 1383 1389 1395 1401 1408 1416 1420 1428 1437 1444 1452
1467 1463 1465 1456 1446 1444 1441 1441 1439 1437 1433 1427 1421 1415 1409 1403 1398 1394 1390 1386 1383 1380 1378 1377 1376 1374 1373 1373 1374 1376 1377 1378 1381 1385 1390 1396 1403 1412 1421 1427 1432 1437 1444 1455
1478 1470 1469 1459 1450 1443 1439 1440 1439 1434 1430 1424 1419 1414 1409 1403 1399 1395 1392 1388 1386 1383 1382 1380 1379 1377 1376 1376 1377 1378 1380 1382 1385 1389 1395 1402 1409 1416 1424 1432 1439 1444 1451 1458
1479 1477 1475 1466 1460 1461 1451 1443 1438 1433 1428 1423 1418 1413 1408 1404 1401 1398 1395 1393 1391 1388 1386 1385 1384 1382 1381 1382 1383 1385 1387 1390 1390 1395 1402 1407 1413 1421 1428 1435 1445 1457 1464 1470